McGrath, AK

6:14 PM AKDT on April 25, 2018 (GMT -0800)
McGrath

Weather History for PAMC - January, 2014

Change the Weather History Date:

Thursday, January 9, 2014

  Actual Average Record
Temperature  
Mean Temperature 10 °F -7 °F  
Max Temperature 14 °F 1 °F 36 °F (1955)
Min Temperature 6 °F -16 °F -58 °F (1972)
Degree Days  
Heating Degree Days 55 72  
Month to date heating degree days 481 647  
Since 1 July heating degree days 5972 6884  
Cooling Degree Days 0 0  
Month to date cooling degree days 0 0  
Year to date cooling degree days 0 0  
Moisture  
Dew Point 6 °F    
Average Humidity 81    
Maximum Humidity 85    
Minimum Humidity 73    
Precipitation  
Precipitation T in 0.04 in 0.65 in (1949)
Month to date precipitation 0.51 0.36  
Year to date precipitation 0.51 0.36  
Snow  
Snow T in 0.60 in 7.80 in (1949)
Month to date snowfall 5.4 5.1  
Since 1 July snowfall 35.7 56.3  
Snow Depth 19.00 in    
Sea Level Pressure  
Sea Level Pressure 29.44 in    
Wind  
Wind Speed 1 mph (ESE)    
Max Wind Speed 10 mph    
Max Gust Speed 11 mph    
Visibility 8 miles    
Events Snow    
T = Trace of Precipitation, MM = Missing Value Source: NWS Daily Summary

Daily Weather History Graph

Daily Weather History Graph

Search for Another Location

Airport or City:

Astronomy

Jan. 09, 2014 Rise Set
Actual Time 10:46 AM AKST 4:13 PM AKST
Civil Twilight 9:41 AM AKST 5:18 PM AKST
Nautical Twilight 8:39 AM AKST 6:20 PM AKST
Astronomical Twilight 7:43 AM AKST 7:16 PM AKST
Moon 12:36 PM AKST (1/9) 4:10 AM AKST (1/9)
Length of Visible Light 7h 36m
Length of Day
5h 26m
Waxing Gibbous, 67% of the Moon is Illuminated
Jan 9
Waxing Gibbous
Jan 15
Full
Jan 23
Last Quarter
Jan 30
New
Feb 6
First Quarter

Hourly Weather History & Observations

Time (AKST) Temp. Windchill Dew Point Humidity Pressure Visibility Wind Dir Wind Speed Gust Speed Precip Events Conditions
12:53 AM 8.1 °F - 3.9 °F 83% 29.37 in 10.0 mi Calm Calm - N/A   Overcast
1:53 AM 8.1 °F - 3.0 °F 80% 29.37 in 10.0 mi Calm Calm - N/A   Overcast
2:53 AM 9.0 °F - 5.0 °F 84% 29.38 in 10.0 mi Calm Calm - N/A   Overcast
3:53 AM 8.1 °F - 3.9 °F 83% 29.38 in 10.0 mi Calm Calm - N/A   Overcast
4:40 AM 8.1 °F - 3.0 °F 80% 29.34 in 10.0 mi Calm Calm - N/A   Overcast
4:53 AM 8.1 °F - 3.9 °F 83% 29.37 in 9.0 mi Calm Calm - 0.00 in Snow Light Snow
5:53 AM 10.0 °F - 6.1 °F 84% 29.37 in 10.0 mi Calm Calm - 0.00 in   Overcast
6:53 AM 10.9 °F - 7.0 °F 84% 29.38 in 8.0 mi Calm Calm - 0.00 in Snow Light Snow
7:53 AM 12.0 °F - 8.1 °F 84% 29.38 in 9.0 mi Calm Calm - 0.00 in Snow Light Snow
8:53 AM 12.0 °F - 8.1 °F 84% 29.39 in 10.0 mi Calm Calm - 0.00 in   Overcast
9:53 AM 12.9 °F 6.9 °F 8.1 °F 81% 29.40 in 10.0 mi East 3.5 mph - N/A   Overcast
10:53 AM 14.0 °F 8.2 °F 8.1 °F 77% 29.42 in 10.0 mi East 3.5 mph - N/A   Overcast
11:51 AM 12.2 °F 6.1 °F 6.8 °F 79% 29.40 in 10.0 mi SE 3.5 mph - N/A   Overcast
11:53 AM 12.9 °F 6.9 °F 8.1 °F 81% 29.43 in 10.0 mi Variable 3.5 mph - N/A   Overcast
12:53 PM 12.9 °F 2.6 °F 6.1 °F 74% 29.45 in 9.0 mi East 6.9 mph - 0.00 in Snow Light Snow
2:53 PM 12.0 °F 1.5 °F 5.0 °F 73% 29.45 in 9.0 mi ESE 6.9 mph - 0.00 in Snow Light Snow
3:53 PM 10.9 °F 4.7 °F 5.0 °F 77% 29.46 in 8.0 mi ESE 3.5 mph - 0.00 in Snow Light Snow
4:53 PM 10.9 °F 4.7 °F 5.0 °F 77% 29.47 in 7.0 mi ESE 3.5 mph - 0.00 in Snow Light Snow
5:53 PM 10.0 °F 3.6 °F 3.9 °F 76% 29.48 in 10.0 mi SE 3.5 mph - 0.00 in   Overcast
7:53 PM 10.0 °F - 5.0 °F 80% 29.49 in 5.0 mi Calm Calm - 0.00 in Snow Light Snow
8:53 PM 9.0 °F - 5.0 °F 84% 29.51 in 7.0 mi Calm Calm - 0.00 in   Overcast
9:40 PM 9.0 °F - 5.0 °F 84% 29.49 in 4.0 mi Calm Calm - 0.00 in Snow Light Snow
9:53 PM 10.0 °F - 5.0 °F 80% 29.52 in 4.0 mi Calm Calm - 0.00 in Snow Light Snow
10:53 PM 10.0 °F - 6.1 °F 84% 29.54 in 4.0 mi Calm Calm - 0.00 in Snow Light Snow
11:09 PM 10.0 °F - 6.1 °F 84% 29.51 in 2.5 mi Calm Calm - 0.00 in Snow Light Snow
11:51 PM 10.4 °F - 6.8 °F 85% 29.52 in 3.0 mi Calm Calm - 0.00 in Snow Light Snow
11:53 PM 10.0 °F - 6.1 °F 84% 29.55 in 3.0 mi Calm Calm - 0.00 in Snow Light Snow